Weather History for McMinnville, OR

Change the Weather History Date:

Wednesday, September 25, 2013

  Actual Average Record
Temperature  
Mean Temperature 54 °F 59 °F  
Max Temperature 62 °F 73 °F 95 °F (1974)
Min Temperature 45 °F 45 °F 27 °F (1908)
Degree Days  
Heating Degree Days 11 6  
Month to date heating degree days 62 93  
Since 1 July heating degree days 79 178  
Cooling Degree Days 0 0  
Month to date cooling degree days 68 31  
Year to date cooling degree days 405 215  
Growing Degree Days 4 (Base 50)    
Moisture  
Dew Point 50 °F    
Average Humidity 80    
Maximum Humidity 100    
Minimum Humidity 60    
Precipitation  
Precipitation 0.06 in 0.06 in 0.65 in (1950)
Month to date precipitation 2.23 1.04  
Year to date precipitation 13.29 23.37  
Snow  
Snow 0.00 in - - ()
Month to date snowfall 0.0  
Snow Depth 0.00 in    
Sea Level Pressure  
Sea Level Pressure 29.97 in    
Wind  
Wind Speed 2 mph (WSW)    
Max Wind Speed 15 mph    
Max Gust Speed 18 mph    
Visibility 9 miles    
Events Rain    
T = Trace of Precipitation, MM = Missing Value Source: NWS Daily Summary

Daily Weather History Graph

Daily Weather History Graph

Search for Another Location

Airport:

Trip Planner

Search our weather history database for the weather conditions in past years. The results will help you decide how hot, cold, wet, or windy it might be!

Date:

Astronomy

Sep. 25, 2013 Rise Set
Actual Time 7:03 AM PDT 7:03 PM PDT
Civil Twilight 6:34 AM PDT 7:32 PM PDT
Nautical Twilight 5:59 AM PDT 8:07 PM PDT
Astronomical Twilight 5:24 AM PDT 8:42 PM PDT
Moon 11:00 PM PDT (9/25) 1:28 PM PDT (9/25)
Length of Visible Light 12h 58m
Length of Day
11h 59m
Waning Gibbous, 63% of the Moon is Illuminated
Sep 25
Waning Gibbous
Sep 26
Last Quarter
Oct 4
New
Oct 11
First Quarter
Oct 18
Full

Hourly Weather History & Observations

Time (PDT) Temp. Dew Point Humidity Pressure Visibility Wind Dir Wind Speed Gust Speed Precip Events Conditions
12:53 AM 50.0 °F 48.9 °F 96% 29.88 in 10.0 mi SW 6.9 mph - N/A   Overcast
1:53 AM 50.0 °F 48.9 °F 96% 29.88 in 10.0 mi WSW 3.5 mph - N/A   Overcast
2:53 AM 50.0 °F 48.9 °F 96% 29.88 in 10.0 mi WSW 3.5 mph - N/A   Overcast
3:53 AM 50.0 °F 48.9 °F 96% 29.88 in 10.0 mi Calm Calm - N/A   Overcast
4:53 AM 50.0 °F 48.9 °F 96% 29.89 in 10.0 mi SW 3.5 mph - N/A   Overcast
5:53 AM 50.0 °F 48.0 °F 93% 29.90 in 10.0 mi West 3.5 mph - N/A   Overcast
6:53 AM 48.9 °F 48.0 °F 97% 29.91 in 10.0 mi West 3.5 mph - 0.00 in Rain Light Rain
7:53 AM 50.0 °F 48.9 °F 96% 29.92 in 10.0 mi Calm Calm - 0.00 in   Overcast
8:53 AM 51.1 °F 50.0 °F 96% 29.94 in 10.0 mi West 4.6 mph - N/A   Overcast
9:53 AM 53.1 °F 48.9 °F 86% 29.95 in 10.0 mi Calm Calm - N/A   Overcast
10:53 AM 55.0 °F 48.9 °F 80% 29.96 in 10.0 mi South 3.5 mph - N/A   Overcast
11:19 AM 55.4 °F 48.2 °F 77% 29.96 in 10.0 mi Calm Calm - N/A   Overcast
11:48 AM 57.2 °F 46.4 °F 67% 29.96 in 10.0 mi Calm Calm - N/A   Overcast
11:53 AM 59.0 °F 48.0 °F 67% 29.96 in 10.0 mi Calm Calm - N/A   Overcast
12:53 PM 60.1 °F 48.0 °F 64% 29.96 in 10.0 mi Variable 3.5 mph - N/A   Mostly Cloudy
1:53 PM 59.0 °F 48.0 °F 67% 29.97 in 10.0 mi Calm Calm - N/A   Overcast
2:53 PM 55.9 °F 48.0 °F 75% 29.98 in 10.0 mi Calm Calm - 0.01 in   Mostly Cloudy
3:53 PM 60.1 °F 46.9 °F 62% 29.98 in 10.0 mi Calm Calm - N/A   Overcast
4:53 PM 60.1 °F 48.0 °F 64% 29.99 in 10.0 mi WNW 6.9 mph - 0.01 in   Overcast
5:53 PM 57.9 °F 53.1 °F 84% 30.00 in 10.0 mi SE 3.5 mph - 0.01 in   Overcast
6:31 PM 55.4 °F 53.6 °F 94% 30.02 in 3.0 mi Calm Calm - 0.02 in Rain Light Rain
6:39 PM 55.4 °F 53.6 °F 94% 30.01 in 8.0 mi West 3.5 mph - 0.02 in Rain Light Rain
6:53 PM 55.0 °F 54.0 °F 96% 30.01 in 10.0 mi SSW 4.6 mph - 0.02 in   Overcast
7:53 PM 53.1 °F 53.1 °F 100% 30.02 in 10.0 mi Calm Calm - N/A   Partly Cloudy
8:53 PM 53.1 °F 52.0 °F 96% 30.04 in 10.0 mi Calm Calm - N/A   Mostly Cloudy
9:34 PM 51.8 °F 51.8 °F 100% 30.04 in 1.8 mi Calm Calm - N/A   Clear
9:44 PM 50.0 °F 50.0 °F 100% 30.04 in 3.0 mi Calm Calm - N/A   Clear
9:53 PM 50.0 °F 50.0 °F 100% 30.04 in 4.0 mi Calm Calm - N/A   Clear
10:11 PM 51.8 °F 51.8 °F 100% 30.05 in 2.5 mi Calm Calm - N/A   Clear
10:19 PM 50.0 °F 50.0 °F 100% 30.05 in 10.0 mi Calm Calm - N/A   Clear
10:53 PM 48.9 °F 48.9 °F 100% 30.05 in 10.0 mi WSW 3.5 mph - 0.01 in   Clear
11:53 PM 48.0 °F 46.9 °F 96% 30.06 in 3.0 mi Calm Calm - N/A   Partly Cloudy